Weather History for Madison, WI

Change the Weather History Date:

Monday, January 28, 2013

  Actual Average Record
Temperature  
Mean Temperature 37 °F 19 °F  
Max Temperature 41 °F 27 °F 52 °F (1914)
Min Temperature 33 °F 11 °F -23 °F (1915)
Degree Days  
Heating Degree Days 28 46  
Month to date heating degree days 1224 1297  
Since 1 July heating degree days 3819 4176  
Cooling Degree Days 0 0  
Month to date cooling degree days 0 0  
Year to date cooling degree days 0 0  
Moisture  
Dew Point 33 °F    
Average Humidity 88    
Maximum Humidity 100    
Minimum Humidity 76    
Precipitation  
Precipitation 0.07 in 0.04 in 0.54 in (2006)
Month to date precipitation 0.58 1.11  
Year to date precipitation 0.58 1.11  
Snow  
Snow 0.00 in 0.40 in 7.30 in (1918)
Month to date snowfall 2.8 11.6  
Since 1 July snowfall 26.3 29.2  
Snow Depth 2.00 in    
Sea Level Pressure  
Sea Level Pressure 29.85 in    
Wind  
Wind Speed 4 mph (SE)    
Max Wind Speed 37 mph    
Max Gust Speed 79 mph    
Visibility 5 miles    
Events Fog , Rain    
T = Trace of Precipitation, MM = Missing Value Source: NWS Daily Summary

Daily Weather History Graph

Daily Weather History Graph

Search for Another Location

Airport:

Trip Planner

Search our weather history database for the weather conditions in past years. The results will help you decide how hot, cold, wet, or windy it might be!

Date:

Astronomy

Jan. 28, 2013 Rise Set
Actual Time 7:16 AM CST 5:04 PM CST
Civil Twilight 6:46 AM CST 5:35 PM CST
Nautical Twilight 6:11 AM CST 6:09 PM CST
Astronomical Twilight 5:38 AM CST 6:43 PM CST
Moon 7:04 PM CST (1/28) 7:38 AM CST (1/28)
Length of Visible Light 10h 49m
Length of Day
9h 48m
Full, 98% of the Moon is Illuminated
Jan 28
Full
Feb 3
Last Quarter
Feb 10
New
Feb 17
First Quarter
Feb 25
Full

Hourly Weather History & Observations

Time (CST) Temp. Windchill Dew Point Humidity Pressure Visibility Wind Dir Wind Speed Gust Speed Precip Events Conditions
12:12 AM 33.8 °F 30.8 °F 33.8 °F 100% 29.83 in 3.0 mi SE 3.5 mph - 0.01 in   Light Drizzle
12:23 AM 33.8 °F 29.6 °F 33.8 °F 100% 29.82 in 2.0 mi SE 4.6 mph - 0.01 in   Light Drizzle
12:34 AM 33.8 °F 30.8 °F 33.8 °F 100% 29.82 in 2.0 mi SE 3.5 mph - 0.02 in Rain Light Rain
12:53 AM 34.0 °F - 33.1 °F 96% 29.84 in 2.0 mi Calm Calm - 0.04 in Rain Light Rain
1:01 AM 33.8 °F - 32.0 °F 93% 29.82 in 1.5 mi Calm Calm - 0.00 in Rain Light Rain
1:53 AM 34.0 °F 31.0 °F 33.1 °F 96% 29.82 in 2.5 mi SE 3.5 mph - 0.01 in   Light Drizzle
2:06 AM 33.8 °F 30.8 °F 33.8 °F 100% 29.79 in 3.0 mi SSE 3.5 mph - 0.00 in   Light Drizzle
2:24 AM 33.8 °F 30.8 °F 33.8 °F 100% 29.79 in 2.5 mi SE 3.5 mph - 0.01 in Rain Light Rain
2:44 AM 33.8 °F 20.3 °F 33.8 °F 100% 29.79 in 1.2 mi South 28.8 mph 79.4 mph 0.01 in   Light Drizzle
2:53 AM 34.0 °F - 33.1 °F 96% 29.81 in 1.2 mi Calm Calm - 0.01 in   Light Drizzle
3:11 AM 33.8 °F - 33.8 °F 100% 29.77 in 0.8 mi Calm Calm - 0.01 in   Light Drizzle
3:29 AM 33.8 °F - 33.8 °F 100% 29.78 in 1.2 mi Calm Calm - 0.02 in   Light Drizzle
3:53 AM 34.0 °F - 33.1 °F 96% 29.81 in 1.0 mi Calm Calm - 0.02 in   Light Drizzle
4:13 AM 33.8 °F - 32.0 °F 93% 29.78 in 0.8 mi Calm Calm - 0.00 in   Light Drizzle
4:20 AM 33.8 °F - 33.8 °F 100% 29.77 in 0.8 mi Calm Calm - 0.00 in   Light Drizzle
4:27 AM 33.8 °F - 33.8 °F 100% 29.77 in 1.0 mi Calm Calm - 0.00 in   Light Drizzle
4:46 AM 33.8 °F - 33.8 °F 100% 29.78 in 0.5 mi Calm Calm - 0.00 in Fog Fog
4:53 AM 34.0 °F - 33.1 °F 96% 29.80 in 0.5 mi Calm Calm - 0.00 in Fog Fog
5:24 AM 33.8 °F - 33.8 °F 100% 29.79 in 1.2 mi Calm Calm - N/A   Overcast
5:35 AM 33.8 °F - 33.8 °F 100% 29.79 in 1.2 mi Calm Calm - N/A   Overcast
5:53 AM 34.0 °F - 34.0 °F 100% 29.83 in 1.2 mi Calm Calm - N/A   Overcast
6:01 AM 35.6 °F - 33.8 °F 93% 29.81 in 0.8 mi Calm Calm - N/A   Overcast
6:53 AM 35.1 °F 30.1 °F 34.0 °F 96% 29.86 in 1.0 mi WNW 5.8 mph - N/A   Overcast
7:11 AM 35.6 °F 30.7 °F 33.8 °F 93% 29.85 in 2.0 mi WNW 5.8 mph - N/A   Overcast
7:45 AM 35.6 °F 32.8 °F 33.8 °F 93% 29.86 in 4.0 mi WNW 3.5 mph - N/A   Overcast
7:53 AM 36.0 °F 31.1 °F 34.0 °F 93% 29.89 in 5.0 mi WNW 5.8 mph - N/A   Overcast
9:53 AM 36.0 °F 30.3 °F 33.1 °F 89% 29.94 in 6.0 mi WNW 6.9 mph - N/A   Overcast
10:34 AM 37.4 °F 32.8 °F 33.8 °F 87% 29.91 in 7.0 mi WNW 5.8 mph - N/A   Scattered Clouds
10:47 AM 39.2 °F 35.0 °F 33.8 °F 81% 29.91 in 7.0 mi NW 5.8 mph - N/A   Mostly Cloudy
10:53 AM 37.9 °F 32.1 °F 33.1 °F 83% 29.94 in 8.0 mi WNW 8.1 mph - N/A   Mostly Cloudy
11:53 AM 37.9 °F 34.4 °F 33.1 °F 83% 29.95 in 10.0 mi Variable 4.6 mph - N/A   Mostly Cloudy
12:40 PM 39.2 °F 37.0 °F 32.0 °F 75% 29.91 in 10.0 mi WNW 3.5 mph - N/A   Mostly Cloudy
12:53 PM 39.0 °F - 32.0 °F 76% 29.92 in 10.0 mi Calm Calm - N/A   Mostly Cloudy
1:53 PM 39.9 °F - 33.1 °F 77% 29.94 in 10.0 mi Calm Calm - N/A   Mostly Cloudy
2:53 PM 39.0 °F - 33.1 °F 79% 29.95 in 10.0 mi Calm Calm - N/A   Mostly Cloudy
3:38 PM 39.2 °F - 32.0 °F 75% 29.93 in 10.0 mi Calm Calm - N/A   Scattered Clouds
3:53 PM 39.9 °F - 33.1 °F 77% 29.95 in 10.0 mi Calm Calm - N/A   Partly Cloudy
4:53 PM 36.0 °F 32.1 °F 30.9 °F 82% 29.94 in 10.0 mi ESE 4.6 mph - N/A   Clear
5:53 PM 34.0 °F 31.0 °F 30.9 °F 89% 29.94 in 10.0 mi East 3.5 mph - N/A   Clear
6:53 PM 34.0 °F 29.8 °F 30.9 °F 89% 29.94 in 8.0 mi East 4.6 mph - N/A   Clear
7:53 PM 33.1 °F 27.7 °F 30.0 °F 89% 29.94 in 7.0 mi SE 5.8 mph - N/A   Clear
8:53 PM 35.1 °F 30.1 °F 32.0 °F 89% 29.91 in 7.0 mi ESE 5.8 mph - N/A   Overcast
9:18 PM 35.6 °F 29.9 °F 33.8 °F 93% 29.88 in 7.0 mi SSE 6.9 mph - N/A   Overcast
9:53 PM 36.0 °F 29.6 °F 33.1 °F 89% 29.87 in 8.0 mi SE 8.1 mph - N/A   Overcast
10:26 PM 37.4 °F 30.3 °F 33.8 °F 87% 29.81 in 9.0 mi SE 10.4 mph - N/A   Overcast
10:29 PM 37.4 °F 30.3 °F 33.8 °F 87% 29.80 in 9.0 mi ESE 10.4 mph - N/A   Overcast
10:53 PM 37.0 °F 30.4 °F 34.0 °F 89% 29.81 in 7.0 mi ESE 9.2 mph - N/A   Overcast
11:26 PM 35.6 °F 28.6 °F 35.6 °F 100% 29.76 in 2.5 mi ESE 9.2 mph - N/A   Overcast
11:53 PM 36.0 °F 29.0 °F 35.1 °F 97% 29.78 in 2.0 mi SE 9.2 mph - 0.00 in Rain Light Rain